Location: Klein M�hlingen
(51.9472°N, 11.7453°E)
Time: 23:12:36
(UTC+00:00)

Cosmos 839 Rocket - Pass Details

Date: 09 April 2020
Orbit: 963 x 2090 km, 65.9° (Epoch: 24 May)

Event Time Altitude Azimuth Distance (km) Brightness Sun altitude
Exits shadow 23:14:57 65° 95° (E) 1,122 4.1 -30.0°
Drops below altitude 10° 23:21:21 10° 43° (NE) 3,057 7.1 -30.0°
Sets 23:24:18 0° 41° (NE) 4,159 8.0 -30.0°
